Starlink 31411

operational
NORAD ID: 59182 Int'l Des: 2024-045 Owner: SPXS Country: US Constellation: starlink
LEOCIRCULAR

Über Starlink 31411

Beschreibung wird geladen...

Live-Position

3D-Globus wird geladen...

Nächste Überflüge

Höhenverlauf

Altitude vs Time

uPlot chart will show altitude changes over time

Zweizeiliger Elementsatz

1 59182U 24045E 25296.63265910 -.00004434 00000-0 -15175-3 0 9995
2 59182 43.0023 146.2851 0001547 248.8688 111.1999 15.27564510 92207
Epoch: 23. Okt. 2025 • Age: 15 hours

Aktueller Status

Höhe 486.7 km
Geschwindigkeit 7.62 km/s
Subsatellitenpunkt -19.61°S, 141.12°W
Startdatum 11. März 2024
Alter 1.6 years
Typ internet

Technische Details

Klassifizierung Payload
Masse 730.00 kg
Trockenmasse 700.00 kg
Gesamtmasse 730.00 kg
Länge 0.30 m
Durchmesser 4.10 m
Spannweite 29.00 m
Form Box + pan
Hersteller SPXS
Bus-Typ Starlink V2M
Phasenstatus In Orbit
Besitzer/Staat SPXS/US

Große Konstellationen

Loading constellations...